Tracking 19559 objects as of 26-Mar-2019
HD Live streaming from Space Station
objects crossing your sky now

MDS 1

Track MDS 1 now!
10-day predictions
MDS 1 is classified as:


NORAD ID: 27367
Int'l Code: 2002-003A
Perigee: 239.9 km
Apogee: 14,455.7 km
Inclination: 28.6 °
Period: 266.5 minutes
Semi major axis: 13718 km
RCS: 3.0677 m2 (large)
Launch date: February 4, 2002
Source: Japan (JPN)
Launch site: TANEGASHIMA SPACE CENTER (TNSTA)
aabbcc
Your satellite tracking list
Your tracking list is empty




NASA's NSSDC Master Catalog

Two Line Element Set (TLE):
1 27367U 02003A   19084.72425048  .00010937  00000-0  51419-3 0  9997
2 27367  28.6099 262.6175 5181146 266.2349  35.8296  5.40294217229626
Source of the keplerian elements: AFSPC